Tacoma, WA
on Monday, December 10, 2012

Monday
Previous Day Next Day
Daily Summary
 ActualAverage (KSEA)Record (KSEA)
Temperature
Mean Temperature °F 41°F  
Max Temperature 44°F 46°F 64°F (1993)
Min Temperature 37°F 36°F 16°F (2009)
Degree Days
Heating Degree Days 24 24  
Month to date heating degree days 236  
Since 1 July heating degree days 1419  
Cooling Degree Days 0 0  
Month to date cooling degree days 0  
Year to date cooling degree days 189  
Moisture
Dew Point 43°F   
Average Humidity 99    
Maximum Humidity 100    
Minimum Humidity 93    
Precipitation
Precipitation 0.06 in 0.17 in 1.55 in (1977)
Month to date precipitation 1.87  
Year to date precipitation 34.01  
Snow
Snow 0.00 in in 2.80 in (1992)
Month to date snowfall  
Since 1 July snowfall  
Snow Depth in   
Wind
Wind Speed 3 mph   
Max Wind Speed 9 mph   
Max Gust Speed mph   
Visibility 6 miles   
Events     

Key: T is trace of precipitation, MM is missing value
Source: NWS Daily Summary
Time(PST)TemperatureDew PointHumidity Pressure Visibility Wind DirectionWind SpeedGust SpeedPrecipitationEvents Conditions
12:03 AM 42.8°F 42.8°F 100% 30.34 in 5.0 miles SE 4.6 mph - N/A   Overcast
12:08 AM 42.8°F 42.8°F 100% 30.34 in 6.0 miles SE 2.3 mph - N/A   Overcast
12:13 AM 42.8°F 42.8°F 100% 30.35 in 6.0 miles Calm Calm - N/A   Overcast
12:23 AM 42.8°F 42.8°F 100% 30.35 in 5.0 miles East 2.3 mph - N/A   Overcast
12:33 AM 42.8°F 42.8°F 100% 30.36 in 4.0 miles ENE 2.3 mph - N/A   Overcast
12:43 AM 42.8°F 42.8°F 100% 30.36 in 4.0 miles NNE 2.3 mph - N/A   Light Drizzle
12:53 AM 42.8°F 42.8°F 100% 30.36 in 2.5 miles ENE 2.3 mph - N/A   Overcast
12:58 AM 43.2°F 43.0°F 99% 30.38 in 1.8 miles ENE 2.3 mph - 0.00 in   Overcast
1:03 AM 42.8°F 42.8°F 100% 30.36 in 1.8 miles East 2.3 mph - N/A   Overcast
1:08 AM 42.8°F 42.8°F 100% 30.35 in 2.0 miles East 1.2 mph - N/A   Light Drizzle
1:13 AM 42.8°F 42.8°F 100% 30.36 in 2.5 miles Calm Calm - N/A   Light Drizzle
1:23 AM 42.8°F 42.8°F 100% 30.36 in 3.0 miles Calm Calm - N/A   Light Drizzle
1:33 AM 42.8°F 42.8°F 100% 30.37 in 2.5 miles Calm Calm - N/A   Light Drizzle
1:43 AM 42.8°F 42.8°F 100% 30.37 in 3.0 miles North 3.5 mph - N/A   Light Drizzle
1:53 AM 42.8°F 42.8°F 100% 30.37 in 2.5 miles NNW 3.5 mph - N/A   Light Drizzle
1:58 AM 43.2°F 42.8°F 99% 30.39 in 2.5 miles NNW 2.3 mph - 0.03 in   Light Drizzle
2:03 AM 42.8°F 42.8°F 100% 30.37 in 3.0 miles Calm Calm - N/A   Light Drizzle
2:08 AM 42.8°F 42.8°F 100% 30.37 in 3.0 miles Calm Calm - N/A   Light Drizzle
2:10 AM 42.8°F 42.8°F 100% 30.37 in 3.0 miles Calm Calm - N/A   Overcast
2:15 AM 42.8°F 42.8°F 100% 30.38 in 3.0 miles Calm Calm - N/A   Overcast
2:25 AM 42.8°F 42.8°F 100% 30.38 in 5.0 miles Calm Calm - N/A   Overcast
2:35 AM 42.8°F 42.8°F 100% 30.39 in 4.0 miles North 2.3 mph - N/A   Overcast
2:39 AM 42.8°F 42.8°F 100% 30.39 in 4.0 miles North 2.3 mph - N/A   Overcast
2:44 AM 42.8°F 42.8°F 100% 30.39 in 5.0 miles North 1.2 mph - N/A   Overcast
2:49 AM 42.8°F 42.8°F 100% 30.40 in 5.0 miles North 2.3 mph - N/A   Overcast
2:54 AM 42.8°F 42.8°F 100% 30.40 in 5.0 miles North 2.3 mph - N/A   Overcast
2:55 AM 42.8°F 42.8°F 100% 30.40 in 5.0 miles North 2.3 mph - N/A   Overcast
2:58 AM 43.0°F 42.8°F 99% 30.42 in 6.0 miles North 2.3 mph - 0.00 in   Overcast
3:03 AM 42.8°F 42.8°F 100% 30.40 in 7.0 miles North 2.3 mph - N/A   Overcast
3:18 AM 42.8°F 42.8°F 100% 30.39 in 5.0 miles NNE 2.3 mph - N/A   Overcast
3:23 AM 42.8°F 42.8°F 100% 30.40 in 4.0 miles NE 1.2 mph - N/A   Overcast
3:34 AM 42.8°F 42.8°F 100% 30.41 in 3.0 miles NE 1.2 mph - N/A   Overcast
3:39 AM 42.8°F 42.8°F 100% 30.41 in 2.5 miles ENE 2.3 mph - N/A   Overcast
3:54 AM 42.8°F 42.8°F 100% 30.41 in 2.5 miles Calm Calm - N/A   Overcast
3:58 AM 42.8°F 42.8°F 100% 30.43 in 3.0 miles East 2.3 mph - 0.01 in   Overcast
4:03 AM 42.8°F 42.8°F 100% 30.40 in 3.0 miles East 2.3 mph - N/A   Overcast
4:38 AM 42.8°F 42.8°F 100% 30.42 in 5.0 miles ENE 3.5 mph - N/A   Overcast
4:58 AM 43.3°F 43.2°F 99% 30.43 in 7.0 miles ESE 3.5 mph - N/A   Overcast
5:13 AM 42.8°F 42.8°F 100% 30.40 in 10.0 miles SE 2.3 mph - N/A   Overcast
5:18 AM 42.8°F 42.8°F 100% 30.39 in 10.0 miles SE 2.3 mph - N/A   Overcast
5:28 AM 42.8°F 42.8°F 100% 30.40 in 10.0 miles Calm Calm - N/A   Overcast
5:43 AM 42.8°F 42.8°F 100% 30.40 in 10.0 miles NNE 1.2 mph - N/A   Overcast
5:53 AM 42.8°F 42.8°F 100% 30.40 in 10.0 miles North 1.2 mph - N/A   Overcast
5:58 AM 43.2°F 43.0°F 99% 30.42 in 10.0 miles North 2.3 mph - N/A   Overcast
6:08 AM 42.8°F 42.8°F 100% 30.40 in 10.0 miles North 3.5 mph - N/A   Overcast
6:23 AM 42.8°F 42.8°F 100% 30.40 in 10.0 miles North 3.5 mph - N/A   Overcast
6:58 AM 43.3°F 43.2°F 99% 30.43 in 6.0 miles North 2.3 mph - N/A   Overcast
7:03 AM 42.8°F 42.8°F 100% 30.41 in 6.0 miles NNE 3.5 mph - N/A   Overcast
7:06 AM 42.8°F 42.8°F 100% 30.41 in 6.0 miles NNE 4.6 mph - N/A   Overcast
7:11 AM 42.8°F 42.8°F 100% 30.41 in 5.0 miles North 1.2 mph - N/A   Overcast
7:16 AM 42.8°F 42.8°F 100% 30.42 in 4.0 miles North 2.3 mph - N/A   Overcast
7:26 AM 42.8°F 42.8°F 100% 30.41 in 3.0 miles NE 1.2 mph - N/A   Overcast
7:31 AM 42.8°F 42.8°F 100% 30.42 in 3.0 miles Calm Calm - N/A   Overcast
7:36 AM 42.8°F 42.8°F 100% 30.42 in 4.0 miles Calm Calm - N/A   Overcast
7:41 AM 42.8°F 42.8°F 100% 30.41 in 5.0 miles Calm Calm - N/A   Overcast
7:46 AM 42.8°F 42.8°F 100% 30.41 in 3.0 miles Calm Calm - N/A   Overcast
7:51 AM 42.8°F 42.8°F 100% 30.41 in 1.5 miles Calm Calm - N/A   Overcast
7:56 AM 42.8°F 42.8°F 100% 30.41 in 1.0 miles Calm Calm - N/A   Overcast
7:58 AM 43.0°F 42.6°F 99% 30.43 in 1.0 miles Calm Calm - N/A   Overcast
8:03 AM 42.8°F 42.8°F 100% 30.41 in 1.2 miles North 1.2 mph - N/A   Overcast
8:58 AM 42.8°F 42.6°F 99% 30.42 in 1.5 miles Calm Calm - 0.01 in   Overcast
9:03 AM 42.8°F 42.8°F 100% 30.40 in 1.8 miles Calm Calm - N/A   Overcast
9:38 AM 42.8°F 42.8°F 100% 30.41 in 1.5 miles NE 2.3 mph - N/A   Overcast
9:58 AM 43.2°F 43.0°F 99% 30.42 in 1.0 miles Calm Calm - N/A   Mist
10:08 AM 42.8°F 42.8°F 100% 30.40 in 1.2 miles Calm Calm - N/A   Overcast
10:16 AM 42.8°F 42.8°F 100% 30.41 in 1.2 miles Variable 1.2 mph - N/A   Light Drizzle
10:44 AM 42.8°F 42.8°F 100% 30.40 in 1.8 miles Calm Calm - N/A   Overcast
10:54 AM 42.8°F 42.8°F 100% 30.40 in 1.5 miles Calm Calm - N/A   Overcast
10:58 AM 43.5°F 43.2°F 99% 30.42 in 1.5 miles Calm Calm - 0.01 in   Overcast
11:03 AM 42.8°F 42.8°F 100% 30.40 in 1.8 miles Variable 3.5 mph - N/A   Overcast
11:08 AM 44.6°F 42.8°F 93% 30.41 in 2.5 miles West 3.5 mph - N/A   Overcast
11:15 AM 44.6°F 42.8°F 93% 30.41 in 2.5 miles Variable 5.8 mph - N/A   Overcast
11:20 AM 44.6°F 42.8°F 93% 30.41 in 3.0 miles West 5.8 mph - N/A   Light Drizzle
11:29 AM 44.6°F 42.8°F 93% 30.41 in 4.0 miles WNW 4.6 mph - N/A   Overcast
11:49 AM 44.6°F 42.8°F 93% 30.41 in 4.0 miles West 2.3 mph - N/A   Overcast
11:58 AM 43.7°F 43.5°F 99% 30.42 in 5.0 miles West 2.3 mph - 0.00 in   Overcast
12:08 PM 44.6°F 42.8°F 93% 30.39 in 10.0 miles Calm Calm - N/A   Overcast
12:43 PM 44.6°F 42.8°F 93% 30.38 in 10.0 miles SSW 3.5 mph - N/A   Overcast
12:53 PM 44.6°F 44.6°F 100% 30.38 in 10.0 miles South 4.6 mph - N/A   Overcast
12:58 PM 44.1°F 43.9°F 99% 30.40 in 10.0 miles South 3.5 mph - N/A   Overcast
1:12 PM 44.6°F 44.6°F 100% 30.37 in 9.0 miles South 4.6 mph - N/A   Light Drizzle
1:17 PM 44.6°F 44.6°F 100% 30.37 in 10.0 miles South 5.8 mph - N/A   Light Drizzle
1:21 PM 44.6°F 44.6°F 100% 30.36 in 10.0 miles South 3.5 mph - N/A   Overcast
1:33 PM 44.6°F 44.6°F 100% 30.36 in 10.0 miles South 4.6 mph - N/A   Overcast
1:38 PM 44.6°F 44.6°F 100% 30.35 in 10.0 miles South 3.5 mph - N/A   Overcast
1:43 PM 44.6°F 44.6°F 100% 30.35 in 10.0 miles SSE 3.5 mph - N/A   Overcast
1:48 PM 44.6°F 44.6°F 100% 30.35 in 10.0 miles SSE 3.5 mph - N/A   Overcast
1:52 PM 44.6°F 44.6°F 100% 30.35 in 10.0 miles SSE 4.6 mph - N/A   Overcast
1:57 PM 44.6°F 44.6°F 100% 30.35 in 10.0 miles South 3.5 mph - N/A   Overcast
1:58 PM 44.2°F 43.9°F 99% 30.37 in 10.0 miles South 4.6 mph - 0.00 in   Overcast
2:58 PM 44.6°F 44.4°F 99% 30.35 in 10.0 miles South 6.9 mph - N/A   Overcast
3:13 PM 44.6°F 44.6°F 100% 30.33 in 10.0 miles South 5.8 mph - N/A   Overcast
3:18 PM 44.6°F 44.6°F 100% 30.33 in 10.0 miles SSW 5.8 mph - N/A   Overcast
3:28 PM 44.6°F 44.6°F 100% 30.34 in 10.0 miles South 5.8 mph - N/A   Overcast
3:38 PM 44.6°F 44.6°F 100% 30.34 in 10.0 miles South 4.6 mph - N/A   Overcast
3:43 PM 44.6°F 44.6°F 100% 30.33 in 10.0 miles South 4.6 mph - N/A   Overcast
3:44 PM 44.6°F 44.6°F 100% 30.33 in 10.0 miles South 4.6 mph - N/A   Overcast
3:58 PM 44.6°F 44.4°F 99% 30.34 in 10.0 miles South 5.8 mph - N/A   Overcast
4:08 PM 44.6°F 44.6°F 100% 30.32 in 10.0 miles South 6.9 mph - N/A   Overcast
4:18 PM 44.6°F 44.6°F 100% 30.32 in 10.0 miles SSW 4.6 mph - N/A   Overcast
4:23 PM 44.6°F 44.6°F 100% 30.32 in 10.0 miles SSW 4.6 mph - N/A   Overcast
4:37 PM 44.6°F 44.6°F 100% 30.32 in 10.0 miles South 4.6 mph - N/A   Overcast
4:58 PM 44.1°F 43.7°F 99% 30.33 in 10.0 miles South 3.5 mph - N/A   Overcast
5:13 PM 44.6°F 42.8°F 93% 30.31 in 10.0 miles South 4.6 mph - N/A   Overcast
5:48 PM 44.6°F 42.8°F 93% 30.30 in 10.0 miles South 6.9 mph - N/A   Overcast
5:58 PM 43.7°F 43.3°F 99% 30.32 in 10.0 miles South 4.6 mph - N/A   Overcast
6:58 PM 43.7°F 43.3°F 99% 30.29 in 10.0 miles South 5.8 mph - N/A   Overcast
7:58 PM 43.9°F 43.5°F 99% 30.26 in 10.0 miles South 6.9 mph - N/A   Overcast
8:08 PM 42.8°F 42.8°F 100% 30.23 in 10.0 miles South 6.9 mph - N/A   Mostly Cloudy
8:38 PM 41.0°F 41.0°F 100% 30.22 in 10.0 miles South 9.2 mph - N/A   Mostly Cloudy
8:58 PM 41.0°F 40.8°F 99% 30.23 in 10.0 miles South 8.1 mph - N/A   Partly Cloudy
9:13 PM 39.2°F 39.2°F 100% 30.20 in 9.0 miles South 5.8 mph - N/A   Clear
9:23 PM 39.2°F 39.2°F 100% 30.20 in 9.0 miles South 6.9 mph - N/A   Partly Cloudy
9:38 PM 41.0°F 41.0°F 100% 30.19 in 10.0 miles SSW 8.1 mph - N/A   Mostly Cloudy
9:58 PM 42.1°F 41.9°F 99% 30.19 in 10.0 miles SSW 6.9 mph - N/A   Mostly Cloudy
10:18 PM 41.0°F 39.2°F 93% 30.16 in 10.0 miles South 4.6 mph - N/A   Scattered Clouds
10:58 PM 39.2°F 38.8°F 99% 30.16 in 8.0 miles ESE 1.2 mph - N/A   Clear
11:02 PM 39.2°F 39.2°F 100% 30.14 in 10.0 miles SE 2.3 mph - N/A   Partly Cloudy
11:27 PM 41.0°F 39.2°F 93% 30.14 in 10.0 miles WSW 3.5 mph - N/A   Mostly Cloudy
11:32 PM 41.0°F 41.0°F 100% 30.13 in 10.0 miles SW 1.2 mph - N/A   Mostly Cloudy
11:37 PM 41.0°F 39.2°F 93% 30.12 in 10.0 miles South 2.3 mph - N/A   Mostly Cloudy
11:52 PM 37.4°F 37.4°F 100% 30.12 in 2.5 miles SE 2.3 mph - N/A   Mostly Cloudy
11:57 PM 37.4°F 37.4°F 100% 30.12 in 1.8 miles SE 2.3 mph - N/A   Scattered Clouds
11:58 PM 37.4°F 37.4°F 100% 30.14 in 1.8 miles SE 1.2 mph - N/A   Scattered Clouds
Moon Phase
Dec. 10 Dec. 13 Dec. 20 Dec. 28 Jan. 04
Sunrise:07:45 AM (PST) Moon Rise:04:28 AM (PST)12/10
Sunset:04:20 PM (PST) Moon Set:02:19 PM (PST)12/10

Copyright © 2014 The Weather Underground, Inc.